Overview Statistics Trail Chart Weather Telemetry Raw packets
 

This is the latest recevied weather packets stored in our database for station/object W4UWO. If no packets are shown the sender has not sent any weather packets the latest 10 day(s).

<< 24 25 26 27 28 29 30 >>
Time Temp. Humidity Pressure Rain* Wind** Luminosity Snow
1788455998 36.11° C 44% 1018.3 hPa 0 mm - 847 W/m² -
1788455693 36.11° C 43% 1018.2 hPa 0 mm - 858 W/m² -
1788455388 35.56° C 44% 1018.3 hPa 0 mm - 822 W/m² -
1788455083 36.11° C 44% 1018.4 hPa 0 mm - 812 W/m² -
1788454782 37.22° C 41% 1018.3 hPa 0 mm - 829 W/m² -
1788454481 37.78° C 41% 1018.6 hPa 0 mm - 820 W/m² -
1788454177 37.22° C 42% 1018.5 hPa 0 mm - 795 W/m² -
1788453872 37.22° C 42% 1018.5 hPa 0 mm - 782 W/m² -
1788453571 36.67° C 42% 1018.6 hPa 0 mm - 776 W/m² -
1788453267 36.67° C 43% 1018.8 hPa 0 mm - 773 W/m² -
1788452963 36.11° C 44% 1018.6 hPa 0 mm - 761 W/m² -
1788452660 35.56° C 44% 1018.6 hPa 0 mm - 754 W/m² -
1788452355 36.67° C 43% 1018.6 hPa 0 mm - 742 W/m² -
1788452050 36.11° C 44% 1018.8 hPa 0 mm - 733 W/m² -
1788451746 35.56° C 44% 1018.8 hPa 0 mm - 724 W/m² -
1788451444 35.56° C 45% 1018.9 hPa 0 mm - 718 W/m² -
1788451143 36.11° C 44% 1018.9 hPa 0 mm - 706 W/m² -
1788450839 35.56° C 45% 1019.1 hPa 0 mm - 698 W/m² -
1788450535 35° C 47% 1018.9 hPa 0 mm - 684 W/m² -
1788450233 34.44° C 47% 1019 hPa 0 mm - 675 W/m² -
1788449931 33.89° C 49% 1018.9 hPa 0 mm - 665 W/m² -
1788449627 33.89° C 49% 1019 hPa 0 mm - 657 W/m² -
1788449323 34.44° C 50% 1019.1 hPa 0 mm - 639 W/m² -
1788449018 34.44° C 51% 1019.1 hPa 0 mm - 621 W/m² -
1788448713 33.89° C 52% 1019 hPa 0 mm - 616 W/m² -

* Rain latest hour (hover to see other rain measurements)
** Current wind speed in m/s (hover to see current wind gust speed)